Miscellaneous Local Product
Issued by NWS Hastings, NE

Home | Current Version | Previous Version | Graphics & Text | Print | Product List | Glossary On
Versions: 1 2 3 4 5 6 7 8 9 10 11 12 13 14 15 16 17 18 19 20 21 22 23 24 25 26 27 28 29 30 31 32 33 34 35 36 37 38 39 40 41 42 43 44 45 46 47 48 49 50
000
AXUS43 KGID 011402
MISGRI

GID CWA HOURLY WEATHER ROUNDUP
NATIONAL WEATHER SERVICE HASTINGS NE
800 AM CST SUN FEB 01 2015

NOTE: "FAIR" INDICATES FEW OR NO CLOUDS BELOW 12,000 FEET WITH NO
SIGNIFICANT WEATHER AND/OR OBSTRUCTIONS TO VISIBILITY.

...SOUTH CENTRAL NEBRASKA...

CITY           SKY/WX    TMP DP  RH WIND       PRES   REMARKS
GRAND ISLAND   BLWGSNOW   9   5  84 N28G41    30.09R VSB 3/4 WCI -13
HASTINGS       FOG       10   6  84 N35G47    30.06R VSB 1/2 WCI -13
KEARNEY        CLOUDY     9   3  78 N26G38    30.10R VSB 1/2 WCI -13
ORD            LGT SNOW   6   1  80 N24G38    30.14R VSB 3/4 WCI -16
YORK           LGT SNOW  14  10  85 N24       30.00R VSB 1   WCI  -5
AURORA         LGT SNOW  10   8  89 N30G39    30.05R VSB 3/4 WCI -12
LEXINGTON      CLOUDY    11   7  82 N24G38    30.12R FOG     WCI  -9
HOLDREGE       LGT SNOW  11   8  85 N22G35    30.09R WCI  -8
HEBRON         LGT SNOW  17  13  86 NW16G24   29.98R WCI   1

...NEBRASKA PANHANDLE...

CITY           SKY/WX    TMP DP  RH WIND       PRES   REMARKS
CHADRON        LGT SNOW   7   1  76 N10       30.29R WCI  -8
ALLIANCE       CLOUDY     6   0  76 N18       30.18R WCI -13
SCOTTSBLUFF    CLOUDY    17  11  77 N13       30.19R WCI   4
SIDNEY         MOCLDY    11   8  88 N13       30.13R WCI  -4

...WESTERN AND NORTH CENTRAL NEBRASKA...

CITY           SKY/WX    TMP DP  RH WIND       PRES   REMARKS
VALENTINE      LGT SNOW   2  -3  80 N23G33    30.26R WCI -21
AINSWORTH      LGT SNOW   4  -1  81 N26       30.21R WCI -20
ONEILL         LGT SNOW   4   1  84 N26G32    30.19R WCI -19
BROKEN BOW     CLOUDY     7   2  80 N30G38    30.13R BLWGSNOWWCI -16
IMPERIAL       CLOUDY    12   5  73 N26       30.17R WCI  -8
NORTH PLATTE   CLOUDY     9   2  73 N21G30    30.17R WCI -11
MCCOOK         CLOUDY    13   6  74 N28G33    30.14R WCI  -8

...EASTERN NEBRASKA...

CITY           SKY/WX    TMP DP  RH WIND       PRES   REMARKS
NORFOLK        HAZE      11   6  81 N28G36    30.08R VSB 3/4 WCI -10
SO SIOUX CITY  LGT SNOW  19  14  81 N23G36    30.05R VSB 3/4 WCI   2
TEKAMAH        SNOW      21  18  88 N32       29.97R VSB 1/2 WCI   2
ALBION         LGT SNOW   7   2  78 N23G37    30.08R VSB 1   WCI -14
OMAHA EPPLEY   SNOW      23  21  92 N26G33    29.90R VSB 1/2 WCI   6
OFFUTT AFB     LGT SNOW  25  21  86 N15G24    29.88R FOG     WCI  12
MILLARD        LGT SNOW  26  22  87 N6        29.90R WCI  19
LINCOLN        LGT SNOW  22  18  85 N32G44    29.95R VSB 3/4 WCI   3
NEBRASKA CITY  LGT SNOW  29  29 100 N21       29.81R WCI  16
BEATRICE       LGT SNOW  25  23  92 N22       29.89R WCI  10
FALLS CITY     LGT SNOW  32  31  96 NW10      29.78R FOG     WCI  24

...NORTHERN KANSAS...

CITY           SKY/WX    TMP DP  RH WIND       PRES   REMARKS
GOODLAND       CLOUDY    17  12  80 N24G37    30.11R WCI  -1
HILL CITY      CLOUDY    17  10  74 NW24G37   30.12R WCI  -1
NORTON         PTSUNNY   12   7  79 NW21G36   30.10R WCI  -6
PHILLIPSBURG   LGT SNOW  18  12  79 NW24G30   30.11R WCI   0
SMITH CENTER   LGT SNOW  12  10  92 NW32G40   30.06R VSB 1   WCI -10
BELOIT         CLOUDY    18  14  86 NW26G37   30.03R WCI  -1
HAYS           CLOUDY    18   7  62 NW18G40   30.07R WCI   2
RUSSELL        FLURRIES  18  14  84 N26G41    30.04R WCI  -1
CONCORDIA      LGT SNOW  17  14  88 NW25G37   29.98R VSB 1   WCI  -1
SALINA         LGT SNOW  24  18  77 NW33G43   29.98R WCI   6
TOPEKA         FLURRIES  34  32  92 W10       29.78R WCI  26



USA.gov is the U.S. government's official web portal to all federal, state and local government web resources and services.